Location: La Trinit�
(48.1620°N, 3.4512°W)
Time: 04:10:09
(UTC+00:00)

Cosmos 2082 Rocket - Pass Details

Date: 08 May 2021
Orbit: 834 x 852 km, 71.0° (Epoch: 13 June)

Event Time Altitude Azimuth Distance (km) Brightness Sun altitude
Rises 22:18:27 0° 332° (NNW) 3,393 7.0 -19.9°
Reaches altitude 10° 22:20:54 10° 334° (NNW) 2,455 5.8 -20.1°
Maximum altitude 22:26:32 79° 61° (ENE) 858 2.2 -20.5°
Enters shadow 22:28:34 41° 141° (SE) 1,194 2.5 -20.7°
